Location: Bednik
(45.3500°N, 16.3833°E)
Time: 10:09:43
(UTC+00:00)

USA 186 - Pass Details

Date: 08 August 2020
Orbit: 262 x 428 km, 96.9° (Epoch: 19 September)

Event Time Altitude Azimuth Distance (km) Brightness Sun altitude
Rises 17:21:28 0° 115° (ESE) 1,914 4.4 7.5°
Enters shadow 18:20:06 -69° 170° (S) 12,314 9.0 -2.1°
Maximum altitude 18:55:01 27° 262° (W) 572 3.1 -7.5°
